#timestamp,LO_Frequency,Hit,StdDev 
1580932815.1,286047004.8,N
1580932835.8,286047003.1,N
1580932855.7,286047005.5,Y
1580932875.5,286047004.0,P
1580932895.4,286047004.1,P
1580932915.2,286047003.6,P
1580932935.0,286047005.1,Y
1580932935.9,286047005.1,P
1580932955.8,286047002.8,P
1580933005.6,286046999.9,E
1580933015.6,286046998.3,N
1580933035.4,286046998.4,P
1580933055.2,286046998.4,P
1580933075.1,286046998.8,Y
1580933076.0,286046998.8,P
1580933095.8,286047000.6,N
1580933115.7,286046999.7,N
1580933135.5,286047001.3,N
1580933155.3,286047003.9,Y
1580933175.2,286047005.8,P
1580933195.0,286047002.9,N
1580933195.9,286047002.9,N
1580933215.8,286047004.1,N
1580933235.6,286047001.9,N
1580933255.4,286047001.5,N
1580933275.3,286046999.7,N
1580933295.1,286047000.9,N
1580933315.8,286047000.0,N
1580933335.7,286047000.9,N
1580933355.5,286047000.9,N
1580933375.4,286047000.3,N
1580933395.2,286047001.8,N
1580933415.0,286047003.5,N
1580933415.9,286047003.5,N
1580933435.8,286047005.0,N
1580933455.6,286047007.3,Y
1580933475.5,286047004.1,P
1580933495.3,286047003.5,P
1580933515.1,286047003.6,P
1580933535.9,286047002.5,Y
1580933555.7,286046999.1,P
1580933575.6,286046999.2,N
1580933595.4,286046997.2,N
1580933615.2,286046998.7,N
1580933635.1,286046999.3,N
1580933636.0,286046999.3,N
1580933655.8,286046998.3,N
1580933675.6,286046999.4,N
1580933695.5,286046996.6,N
1580933715.3,286046999.6,N
1580933735.2,286046998.6,N
1580933755.9,286047000.7,N
1580933775.7,286046998.9,N
1580933795.6,286046999.0,N
1580933815.4,286046999.4,N
1580933835.2,286046997.4,N
1580933855.1,286046995.2,Y
1580933856.0,286046995.2,P
1580933875.8,286046998.4,N
1580933895.7,286046996.9,N
1580933915.5,286047002.8,N
1580933935.3,286047001.3,N
1580933955.2,286047001.8,N
1580933975.0,286047002.8,N
1580933975.9,286047002.8,N
1580933995.8,286047000.4,N
1580934015.6,286046998.2,N
1580934035.4,286047001.1,N
1580934055.3,286047001.2,N
1580934075.1,286047000.6,N
1580934095.8,286046999.9,N
1580934115.7,286047001.3,N
1580934135.5,286047005.4,N
1580934155.4,286047006.2,N
1580934175.2,286047004.8,N
1580934195.0,286047004.5,N
1580934195.9,286047004.5,N
1580934215.8,286047005.7,N
1580934235.6,286047003.0,N
1580934255.4,286047003.9,N
1580934275.3,286047004.4,N
1580934295.1,286047004.0,N
1580934315.9,286047003.3,N
1580934335.7,286047004.0,N
1580934355.5,286047003.6,N
1580934375.4,286047003.3,N
1580934395.2,286047002.9,N
1580934415.0,286047003.9,N
1580934415.9,286047003.9,N
1580934435.8,286047002.8,N
1580934455.6,286047001.9,N
1580934475.5,286047002.8,N
1580934495.3,286047002.4,N
1580934515.1,286047000.1,N
1580934535.9,286047001.7,N
1580934555.7,286047000.4,N
1580934575.5,286047000.3,N
1580934595.4,286047001.3,N
1580934615.2,286047003.7,N
1580934635.1,286047002.4,N
1580934636.0,286047002.4,N
1580934655.8,286047004.4,N
1580934675.6,286047004.4,N
1580934695.5,286047003.5,N
1580934715.3,286047006.0,Y
1580934735.1,286047002.5,P
1580934755.9,286047002.2,P
1580934775.7,286047002.4,P
1580934795.6,286047003.7,Y
1580934815.4,286047002.7,P
1580934835.2,286047000.5,P
1580934855.1,286047002.3,N
1580934856.0,286047002.3,N
1580934875.8,286046999.7,N
1580934895.7,286047002.1,N
1580934915.5,286047004.3,Y
1580934935.3,286047005.7,P
1580934955.2,286047007.5,P
1580934975.0,286047003.1,N
1580934975.9,286047003.1,N
1580934995.7,286047006.9,Y
1580935015.6,286047001.8,P
1580935035.4,286047001.8,N
1580935055.3,286047002.4,N
1580935075.1,286047000.7,N
1580935076.0,286047000.7,N
1580935095.8,286047000.8,N
1580935115.7,286046998.7,N
1580935135.5,286046999.3,N
1580935155.3,286046998.7,N
1580935175.2,286047001.2,N
1580935195.0,286046999.1,N
1580935195.9,286046999.1,N
1580935215.8,286046999.2,N
1580935235.6,286046995.5,N
1580935255.4,286046997.6,N
1580935275.3,286046995.0,N
1580935295.1,286046997.4,N
1580935315.8,286046997.6,N
1580935335.7,286046995.8,N
1580935355.5,286046993.5,N
1580935375.4,286046993.3,N
1580935395.2,286046994.2,N
1580935415.0,286046996.2,N
1580935415.9,286046996.2,N
1580935435.8,286046995.9,N
1580935455.6,286046995.5,N
1580935475.4,286046997.5,N
1580935495.3,286046998.6,N
1580935515.1,286047002.6,N
1580935535.9,286047001.4,N
1580935555.7,286047004.2,N
1580935575.5,286047004.4,N
1580935595.4,286047003.6,N
1580935615.2,286047003.5,N
1580935635.0,286047005.7,N
1580935635.9,286047005.7,N
1580935655.8,286047004.9,N
1580935675.6,286047003.5,N
1580935695.5,286047001.5,N
1580935715.3,286047001.3,N
1580935735.1,286047003.2,N
1580935755.9,286047001.4,N
1580935775.7,286047001.3,N
1580935795.5,286047004.0,N
1580935815.4,286047005.1,N
1580935835.2,286047007.5,N
1580935855.1,286047004.5,N
1580935856.0,286047004.5,N
1580935875.8,286047004.6,N
1580935895.6,286047007.2,N
1580935915.5,286047007.0,N
1580935935.3,286047005.3,N
1580935955.1,286047007.2,N
1580935975.9,286047006.1,N
1580935995.7,286047008.7,N
1580936015.6,286047008.5,N
1580936035.4,286047008.2,Y
1580936055.2,286047005.3,P
1580936075.1,286047008.5,P
1580936076.0,286047008.5,P
1580936095.8,286047008.7,Y
1580936115.7,286047002.1,P
1580936135.5,286047000.0,N
1580936155.3,286047004.0,N
1580936175.2,286047003.3,N
1580936195.0,286047002.8,N
1580936195.9,286047002.8,N
1580936215.8,286046998.3,N
1580936235.6,286047000.7,N
1580936255.4,286046998.7,N
1580936275.3,286046997.0,N
1580936295.1,286046995.4,N
1580936315.8,286046995.2,N
1580936335.7,286046995.0,N
1580936355.5,286046998.3,N
1580936375.4,286047002.3,N
1580936395.2,286047003.4,N
